N7MLR Weather Reports


Display with metric or nautical units.
time (UTC)temp
F
wind
direction
speed
MPH
gust
MPH
rain 1hr
in
rain 24hr
in
rain mn
in
humidity
%
barometer
mb
20260506001501 82 225 0.0 0.0 0.00 0.00 0.00 74 1006.1
20260506000958 83 225 0.0 0.0 0.00 0.00 0.00 73 1006.0
20260506000455 83 216 1.0 1.0 0.00 0.00 0.00 72 1005.9
20260505235952 83 193 1.0 1.0 0.00 0.00 0.00 72 1005.8
20260505235451 84 200 1.0 1.0 0.00 0.00 0.00 70 1005.9
20260505234947 84 192 0.0 1.0 0.00 0.00 0.00 70 1005.9
20260505234445 85 212 1.0 2.0 0.00 0.00 0.00 69 1006.0
20260505233941 85 197 2.0 2.0 0.00 0.00 0.00 68 1005.7
20260505233439 85 224 1.0 1.0 0.00 0.00 0.00 68 1005.7
20260505232936 84 136 3.0 3.0 0.00 0.00 0.00 69 1005.8
20260505232434 83 189 2.0 2.0 0.00 0.00 0.00 71 1005.8
20260505231931 84 174 1.0 2.0 0.00 0.00 0.00 71 1005.9
20260505231428 84 229 1.0 1.0 0.00 0.00 0.00 71 1005.7
20260505230926 84 235 4.0 6.0 0.00 0.00 0.00 71 1005.8
20260505230424 84 221 1.0 2.0 0.00 0.00 0.00 70 1006.0
20260505225920 84 164 3.0 3.0 0.00 0.00 0.00 69 1005.9
20260505225417 84 213 1.0 1.0 0.00 0.00 0.00 70 1005.8
20260505224912 84 188 2.0 2.0 0.00 0.00 0.00 70 1005.7
20260505224410 85 281 2.0 2.0 0.00 0.00 0.00 70 1005.7
20260505223907 85 195 1.0 2.0 0.00 0.00 0.00 68 1005.7
20260505223404 85 191 2.0 2.0 0.00 0.00 0.00 67 1005.5
20260505222900 86 47 2.0 2.0 0.00 0.00 0.00 68 1005.5
20260505222356 85 187 2.0 2.0 0.00 0.00 0.00 67 1005.5
20260505221853 85 140 3.0 3.0 0.00 0.00 0.00 68 1005.8
20260505221350 85 111 3.0 5.0 0.00 0.00 0.00 68 1005.6
20260505220847 83 186 2.0 2.0 0.00 0.00 0.00 71 1005.6
20260505220344 84 112 3.0 3.0 0.00 0.00 0.00 70 1005.9
20260505215842 84 117 2.0 3.0 0.00 0.00 0.00 70 1005.8
20260505215339 84 228 2.0 3.0 0.00 0.00 0.00 70 1005.6
20260505214837 84 228 2.0 2.0 0.00 0.00 0.00 70 1006.0
20260505214335 84 81 3.0 6.0 0.00 0.00 0.00 70 1005.9
20260505213831 84 185 1.0 2.0 0.00 0.00 0.00 69 1005.7
20260505213330 85 285 3.0 3.0 0.00 0.00 0.00 69 1006.1
20260505212825 85 184 2.0 2.0 0.00 0.00 0.00 69 1006.2
20260505212322 86 104 4.0 5.0 0.00 0.00 0.00 66 1006.2
20260505211818 86 78 3.0 5.0 0.00 0.00 0.00 66 1006.2
20260505211316 86 153 1.0 2.0 0.00 0.00 0.00 68 1006.5
20260505210812 86 151 3.0 3.0 0.00 0.00 0.00 67 1006.2
20260505210309 85 237 3.0 7.0 0.00 0.00 0.00 68 1006.4
20260505205806 87 136 3.0 3.0 0.00 0.00 0.00 66 1006.4
20260505205305 85 292 3.0 5.0 0.00 0.00 0.00 68 1006.7
20260505204801 84 171 3.0 3.0 0.00 0.00 0.00 69 1006.7
20260505204259 84 166 3.0 3.0 0.00 0.00 0.00 69 1006.7
20260505203756 83 229 1.0 1.0 0.00 0.00 0.00 72 1006.8
20260505203253 83 182 1.0 1.0 0.00 0.00 0.00 71 1006.9
20260505202749 84 241 1.0 1.0 0.00 0.00 0.00 71 1006.9
20260505202245 83 266 2.0 3.0 0.00 0.00 0.00 71 1006.9
20260505201742 83 197 3.0 3.0 0.00 0.00 0.00 71 1007.2
20260505201239 83 120 1.0 2.0 0.00 0.00 0.00 72 1007.2
20260505200738 83 185 1.0 1.0 0.00 0.00 0.00 73 1007.3
20260505200235 83 202 1.0 2.0 0.00 0.00 0.00 71 1007.3
20260505195729 83 286 2.0 2.0 0.00 0.00 0.00 71 1007.5
20260505195227 83 160 2.0 2.0 0.00 0.00 0.00 72 1007.4
20260505194725 83 292 2.0 3.0 0.00 0.00 0.00 72 1007.6
20260505194221 84 217 0.0 1.0 0.00 0.00 0.00 70 1007.5
20260505193717 82 310 3.0 7.0 0.00 0.00 0.00 72 1007.7
20260505193214 83 215 1.0 1.0 0.00 0.00 0.00 72 1007.5
20260505192713 84 178 2.0 2.0 0.00 0.00 0.00 71 1007.6
20260505192210 82 198 3.0 3.0 0.00 0.00 0.00 73 1007.6
20260505191708 83 194 3.0 3.0 0.00 0.00 0.00 72 1007.6
20260505191206 82 179 1.0 1.0 0.00 0.00 0.00 74 1007.8
20260505190702 81 168 2.0 2.0 0.00 0.00 0.00 75 1007.9
20260505190201 81 133 3.0 3.0 0.00 0.00 0.00 74 1007.7
20260505185659 80 182 2.0 2.0 0.00 0.00 0.00 77 1007.7
20260505185155 81 45 3.0 3.0 0.00 0.00 0.00 76 1007.9
20260505184651 81 93 3.0 3.0 0.00 0.00 0.00 75 1008.0
20260505184148 80 119 3.0 3.0 0.00 0.00 0.00 76 1008.2
20260505183645 80 163 3.0 3.0 0.00 0.00 0.00 76 1008.2
20260505183143 80 82 3.0 3.0 0.00 0.00 0.00 76 1008.5
20260505182639 80 110 2.0 2.0 0.00 0.00 0.00 77 1008.5
20260505182136 79 167 2.0 2.0 0.00 0.00 0.00 78 1008.4
20260505181632 79 174 2.0 3.0 0.00 0.00 0.00 78 1008.5
20260505181130 79 179 2.0 2.0 0.00 0.00 0.00 79 1008.7
20260505180626 78 178 2.0 2.0 0.00 0.00 0.00 79 1008.7
20260505180123 79 132 3.0 3.0 0.00 0.00 0.00 78 1008.3
20260505175619 80 187 2.0 2.0 0.00 0.00 0.00 76 1008.9
20260505175116 78 146 3.0 3.0 0.00 0.00 0.00 79 1009.0
20260505174613 78 108 3.0 3.0 0.00 0.00 0.00 80 1008.8
20260505174109 76 140 3.0 3.0 0.00 0.00 0.00 83 1008.9
20260505173606 76 127 4.0 5.0 0.00 0.00 0.00 82 1008.8
20260505173102 77 104 2.0 3.0 0.00 0.00 0.00 83 1008.9
20260505172600 76 115 2.0 2.0 0.00 0.00 0.00 84 1008.7
20260505172057 75 215 1.0 1.0 0.00 0.00 0.00 85 1008.7
20260505171551 75 60 3.0 3.0 0.00 0.00 0.00 85 1008.8
20260505171049 75 217 2.0 2.0 0.00 0.00 0.00 85 1009.0
20260505170545 75 105 2.0 3.0 0.00 0.00 0.00 86 1008.9
20260505170042 75 169 2.0 3.0 0.00 0.00 0.00 86 1008.8
20260505165537 74 177 2.0 2.0 0.00 0.00 0.00 87 1009.0
20260505165033 74 87 2.0 3.0 0.00 0.00 0.00 87 1009.1
20260505164529 74 156 3.0 3.0 0.00 0.00 0.00 88 1009.1
20260505164027 73 169 2.0 2.0 0.00 0.00 0.00 88 1009.0
20260505163526 74 166 1.0 2.0 0.00 0.00 0.00 88 1009.0
20260505163022 73 184 1.0 2.0 0.00 0.00 0.00 89 1008.9
20260505162515 73 99 2.0 3.0 0.00 0.00 0.00 89 1008.9
20260505162012 73 171 2.0 2.0 0.00 0.00 0.00 90 1008.9
20260505161509 73 154 3.0 3.0 0.00 0.00 0.00 90 1008.8
20260505161006 72 156 2.0 2.0 0.00 0.00 0.00 90 1009.0
20260505160504 72 216 3.0 3.0 0.00 0.00 0.00 91 1009.1
20260505152940 71 166 2.0 2.0 0.00 0.00 0.00 93 1008.7
20260505152437 71 185 1.0 1.0 0.00 0.00 0.00 93 1008.6
20260505151932 71 188 2.0 2.0 0.00 0.00 0.00 94 1008.8
20260505151428 70 156 3.0 3.0 0.00 0.00 0.00 94 1008.8
20260505150925 70 194 1.0 2.0 0.00 0.00 0.00 94 1008.8
20260505150422 70 141 3.0 3.0 0.00 0.00 0.00 94 1008.6
20260505140346 69 183 1.0 1.0 0.00 0.00 0.00 96 1008.8
20260505130309 69 117 2.0 3.0 0.00 0.00 0.00 94 1008.2
20260505124800 69 154 2.0 2.0 0.00 0.00 0.00 94 1007.9
20260505124257 69 107 4.0 6.0 0.00 0.00 0.00 93 1007.7
20260505123752 69 94 4.0 5.0 0.00 0.00 0.00 93 1007.8
20260505123249 69 159 2.0 2.0 0.00 0.00 0.00 94 1008.0
20260505122745 69 104 3.0 3.0 0.00 0.00 0.00 94 1007.8
20260505122243 69 106 3.0 3.0 0.00 0.00 0.00 94 1007.6
20260505121740 69 166 2.0 2.0 0.00 0.00 0.00 94 1007.8
20260505121236 69 168 2.0 2.0 0.00 0.00 0.00 94 1007.4
20260505120733 69 234 1.0 2.0 0.00 0.00 0.00 94 1007.5
20260505120229 69 273 2.0 2.0 0.00 0.00 0.00 94 1007.4
20260505115727 69 116 3.0 3.0 0.00 0.00 0.00 94 1007.5
20260505115226 69 88 3.0 5.0 0.00 0.00 0.00 94 1007.4
20260505114722 69 108 3.0 3.0 0.00 0.00 0.00 94 1007.3
20260505114218 69 170 2.0 2.0 0.00 0.00 0.00 95 1007.5
20260505113715 69 140 3.0 3.0 0.00 0.00 0.00 95 1007.5
20260505113212 69 168 2.0 2.0 0.00 0.00 0.00 95 1007.3
20260505112708 69 64 2.0 2.0 0.00 0.00 0.00 94 1007.4
20260505112206 69 4 2.0 2.0 0.00 0.00 0.00 94 1007.4
20260505111706 69 172 1.0 2.0 0.00 0.00 0.00 94 1007.5
20260505111202 69 104 2.0 3.0 0.00 0.00 0.00 94 1007.4
20260505110658 69 156 2.0 2.0 0.00 0.00 0.00 94 1007.0
20260505110155 69 359 3.0 3.0 0.00 0.00 0.00 94 1007.1
20260505102131 69 105 3.0 3.0 0.00 0.00 0.00 93 1007.3
20260505101630 69 70 3.0 5.0 0.00 0.00 0.00 93 1007.3
20260505101125 69 100 3.0 3.0 0.00 0.00 0.00 93 1007.3
20260505100622 69 122 3.0 3.0 0.00 0.00 0.00 93 1007.5
20260505100119 69 118 2.0 2.0 0.00 0.00 0.00 93 1007.5
20260505095615 69 116 2.0 3.0 0.00 0.00 0.00 93 1007.7
20260505095112 69 93 3.0 5.0 0.00 0.00 0.00 93 1007.7
20260505094608 69 172 2.0 2.0 0.00 0.00 0.00 93 1007.5
20260505094104 69 121 2.0 2.0 0.00 0.00 0.00 93 1007.6
20260505093601 69 156 2.0 2.0 0.00 0.00 0.00 93 1007.6
20260505093058 69 128 3.0 3.0 0.00 0.00 0.00 93 1007.7
20260505092555 69 158 2.0 2.0 0.00 0.00 0.00 93 1007.6
20260505092054 69 262 3.0 3.0 0.00 0.00 0.00 93 1007.5
20260505091550 69 148 3.0 3.0 0.00 0.00 0.00 93 1007.4
20260505091049 69 98 3.0 3.0 0.00 0.00 0.00 93 1007.6
20260505090547 69 237 2.0 2.0 0.00 0.00 0.00 93 1007.6
20260505090044 69 184 1.0 1.0 0.00 0.00 0.00 92 1007.8
20260505085542 69 220 2.0 2.0 0.00 0.00 0.00 92 1007.9
20260505085040 69 72 3.0 3.0 0.00 0.00 0.00 92 1008.2
20260505084537 69 17 2.0 2.0 0.00 0.00 0.00 92 1007.8
20260505084035 69 123 2.0 3.0 0.00 0.00 0.00 92 1007.7
20260505083532 69 122 3.0 5.0 0.00 0.00 0.00 92 1007.9
20260505083029 69 273 2.0 2.0 0.00 0.00 0.00 92 1008.2
20260505082524 69 256 3.0 3.0 0.00 0.00 0.00 92 1007.8
20260505082021 69 224 2.0 3.0 0.00 0.00 0.00 92 1008.2
20260505081518 69 229 2.0 3.0 0.00 0.00 0.00 92 1008.2
20260505081015 69 34 2.0 3.0 0.00 0.00 0.00 92 1007.9
20260505080511 69 269 2.0 5.0 0.00 0.00 0.00 92 1008.3
20260505080008 69 104 3.0 3.0 0.00 0.00 0.00 92 1008.5
20260505075504 69 143 4.0 5.0 0.00 0.00 0.00 92 1008.5
20260505075001 69 104 2.0 2.0 0.00 0.00 0.00 92 1008.5
20260505074458 69 189 1.0 1.0 0.00 0.00 0.00 92 1008.5
20260505073955 69 104 3.0 3.0 0.00 0.00 0.00 91 1008.5
20260505073453 69 74 4.0 6.0 0.00 0.00 0.00 91 1008.4
20260505072950 69 186 2.0 2.0 0.00 0.00 0.00 91 1008.6
20260505072446 69 0 3.0 5.0 0.00 0.00 0.00 91 1008.8
20260505071942 69 40 2.0 3.0 0.00 0.00 0.00 91 1008.9
20260505071438 70 74 3.0 3.0 0.00 0.00 0.00 91 1008.8
20260505070937 70 353 3.0 3.0 0.00 0.00 0.00 91 1009.2
20260505070433 70 190 3.0 3.0 0.00 0.00 0.00 91 1009.3
20260505065929 70 162 2.0 2.0 0.00 0.00 0.00 91 1009.2
20260505065425 70 133 2.0 2.0 0.00 0.00 0.00 91 1009.1
20260505064922 70 210 2.0 2.0 0.00 0.00 0.00 91 1009.2
20260505064419 70 62 2.0 2.0 0.00 0.00 0.00 90 1009.3
20260505063918 70 245 4.0 5.0 0.00 0.00 0.00 90 1009.5
20260505063414 70 78 3.0 5.0 0.00 0.00 0.00 90 1009.5
20260505062910 70 130 3.0 3.0 0.00 0.00 0.00 90 1009.4
20260505062408 70 99 3.0 3.0 0.00 0.00 0.00 90 1009.5
20260505061904 70 226 3.0 3.0 0.00 0.00 0.00 90 1009.3
20260505061403 70 139 2.0 2.0 0.00 0.00 0.00 90 1009.7
20260505060900 70 152 3.0 3.0 0.00 0.00 0.00 90 1009.7
20260505060356 70 204 3.0 3.0 0.00 0.00 0.00 89 1009.6
20260505055852 70 103 2.0 3.0 0.00 0.00 0.00 89 1009.6
20260505055348 70 174 2.0 2.0 0.00 0.00 0.00 89 1009.5
20260505054846 70 226 1.0 2.0 0.00 0.00 0.00 89 1009.6
20260505054343 70 182 1.0 2.0 0.00 0.00 0.00 89 1009.8
20260505053841 70 33 5.0 7.0 0.00 0.00 0.00 89 1009.6
20260505053338 70 311 4.0 6.0 0.00 0.00 0.00 89 1009.8
20260505052834 71 292 3.0 5.0 0.00 0.00 0.00 89 1009.6
20260505052331 71 103 3.0 3.0 0.00 0.00 0.00 89 1009.7
20260505051829 71 24 3.0 3.0 0.00 0.00 0.00 89 1009.7
20260505051326 71 227 1.0 2.0 0.00 0.00 0.00 89 1009.9
20260505050824 71 133 2.0 2.0 0.00 0.00 0.00 89 1009.4
20260505050323 71 255 2.0 2.0 0.00 0.00 0.00 89 1009.4
20260505041752 72 16 2.0 3.0 0.00 0.00 0.00 85 1009.4
20260505041249 72 221 3.0 5.0 0.00 0.00 0.00 85 1009.5
20260505040747 72 224 1.0 2.0 0.00 0.00 0.00 85 1009.4
20260505040244 72 198 1.0 2.0 0.00 0.00 0.00 84 1009.6
20260505035741 71 202 1.0 2.0 0.00 0.00 0.00 85 1009.5
20260505035236 70 240 1.0 2.0 0.00 0.00 0.00 87 1009.6
20260505034734 70 243 1.0 1.0 0.00 0.00 0.00 87 1009.6
20260505034230 70 240 0.0 1.0 0.00 0.00 0.00 87 1009.6
20260505033727 70 238 1.0 1.0 0.00 0.00 0.00 87 1009.4
20260505033225 70 254 1.0 1.0 0.00 0.00 0.00 87 1009.5
20260505032723 70 252 0.0 1.0 0.00 0.00 0.00 87 1009.5
20260505032218 70 250 0.0 1.0 0.00 0.00 0.00 86 1009.7
20260505031716 71 254 1.0 2.0 0.00 0.00 0.00 86 1009.6
20260505031212 71 246 0.0 0.0 0.00 0.00 0.00 85 1009.5
20260505030709 71 246 0.0 1.0 0.00 0.00 0.00 84 1009.4
20260505030205 71 242 0.0 1.0 0.00 0.00 0.00 84 1009.4
20260505025701 71 245 1.0 1.0 0.00 0.00 0.00 84 1009.5
20260505025200 72 240 0.0 1.0 0.00 0.00 0.00 83 1009.5
20260505024657 72 239 0.0 1.0 0.00 0.00 0.00 83 1009.5
20260505024154 72 224 1.0 1.0 0.00 0.00 0.00 83 1009.4
20260505023651 72 221 0.0 0.0 0.00 0.00 0.00 82 1009.6
20260505023149 72 223 1.0 1.0 0.00 0.00 0.00 82 1009.4
20260505022646 72 251 1.0 2.0 0.00 0.00 0.00 81 1009.3
20260505022143 72 230 2.0 2.0 0.00 0.00 0.00 81 1009.6
20260505021639 72 222 1.0 1.0 0.00 0.00 0.00 81 1009.3
20260505021137 73 222 0.0 1.0 0.00 0.00 0.00 80 1009.2
20260505020632 73 205 0.0 1.0 0.00 0.00 0.00 79 1009.4
20260505020128 73 207 1.0 1.0 0.00 0.00 0.00 79 1009.4
20260505015626 73 206 0.0 1.0 0.00 0.00 0.00 78 1009.0
20260505015122 73 240 1.0 1.0 0.00 0.00 0.00 78 1009.2
20260505014619 73 238 0.0 0.0 0.00 0.00 0.00 78 1009.1
20260505014116 73 238 1.0 1.0 0.00 0.00 0.00 77 1009.2
20260505013613 74 239 1.0 1.0 0.00 0.00 0.00 76 1009.2
20260505013110 74 233 1.0 1.0 0.00 0.00 0.00 75 1009.1
20260505012609 75 228 1.0 1.0 0.00 0.00 0.00 74 1009.1
20260505012105 77 200 1.0 2.0 0.00 0.00 0.00 71 1008.9
20260505011601 77 204 1.0 1.0 0.00 0.00 0.00 70 1009.0
20260505011058 77 195 2.0 2.0 0.00 0.00 0.00 70 1009.0
20260505010553 78 159 3.0 3.0 0.00 0.00 0.00 69 1009.0
20260505010050 76 221 2.0 3.0 0.00 0.00 0.00 71 1008.9
20260505005546 76 219 1.0 2.0 0.00 0.00 0.00 72 1009.2
20260505005044 77 229 1.0 2.0 0.00 0.00 0.00 71 1009.0
20260505004541 77 156 2.0 2.0 0.00 0.00 0.00 70 1009.0
20260505004038 77 307 3.0 3.0 0.00 0.00 0.00 69 1008.8
20260505003535 77 122 3.0 3.0 0.00 0.00 0.00 68 1008.8
20260505003032 78 221 3.0 5.0 0.00 0.00 0.00 67 1008.7
20260505002527 78 81 4.0 5.0 0.00 0.00 0.00 68 1008.6
20260505002026 78 223 3.0 3.0 0.00 0.00 0.00 68 1008.8